Location: Asheville, NC
(35.6000°N, 82.5500°W)
Time: 07:06:00
(UTC-05:00)

Vanguard 2 Rocket - Pass Details

Date: 14 February 2018
Orbit: 555 x 3327 km, 32.9° (Epoch: 19 February)

Event Time Altitude Azimuth Distance (km) Brightness Sun altitude
Exits shadow 01:48:57 41° 91° (E) 4,258 10.1 -63.1°
Drops below altitude 10° 01:59:18 10° 83° (E) 6,059 11.3 -61.8°
Sets 02:03:36 0° 82° (E) 6,886 11.7 -61.2°
